Powrót do katalogu

BREEZE-M DEB

AktywnyHEO
NORAD 32029·DEBRIS·🇷🇺 Russia

Wystrzelony Feb 28, 2006 z Baikonur Cosmodrome

Loading…

Następne Przeloty (najbliższe 24 godziny)

TLE

ŚwieżeSource: Space-Track

Epoka: Sep 13, 2026, 20:25 UTC

1 32029U 06006G   26256.85093536  .00001241  00000-0  96578-3 0  9994
2 32029  51.5708  60.0607 5133240 126.2314 292.9563  5.26630693372996

Śledź BREEZE-M DEB w czasie rzeczywistym z AllMySat

Download on the App Store